Starlink 3623

operational
NORAD ID: 51772 Int'l Des: 2022-017 Owner: SPXS Country: US Constellation: starlink
LEOCIRCULAR

关于 Starlink 3623

正在加载描述...

实时位置

正在加载3D地球...

即将过境

高度历史

Altitude vs Time

uPlot chart will show altitude changes over time

两行轨道根数

1 51772U 22017E 25259.12609294 -.00001175 00000-0 -55764-4 0 9997
2 51772 53.2192 42.7679 0001157 83.7890 276.3234 15.08848650196244
Epoch: Sep 16, 2025 • Age: 10 hours

当前状态

高度 540.5 km
速度 7.60 km/s
星下点 27.57°N, 122.71°W
发射日期 Feb 25, 2022
运行时间 3.5 years
类型 internet

技术详情

分类 Payload
质量 297.00 kg
干质量 275.00 kg
总质量 297.00 kg
长度 0.20 m
直径 2.80 m
跨度 9.00 m
形状 Box + pan
制造商 SPXS
平台类型 Starlink
阶段状态 In Orbit
所有者/国家 SPXS/US

大型星座

Loading constellations...